Location: Crescent
(42.8242°N, 73.7329°W)
Time: 02:01:24
(UTC+00:00)

Explorer 7 - Pass Details

Date: 20 February 2026
Orbit: 430 x 541 km, 50.2° (Epoch: 13 March)

Event Time Altitude Azimuth Distance (km) Brightness Sun altitude
Rises 00:01:23 0° 301° (WNW) 2,519 11.3 -17.1°
Reaches altitude 10° 00:03:33 10° 307° (NW) 1,660 10.1 -17.5°
Maximum altitude 00:07:14 50° 23° (NNE) 633 6.9 -18.1°
Enters shadow 00:07:55 44° 60° (ENE) 697 6.9 -18.3°
Drops below altitude 10° 00:11:03 10° 101° (E) 1,724 - -18.8°
Sets 00:13:20 0° 106° (ESE) 2,628 - -19.3°
